Location: Lane
(33.5226°N, 79.8788°W)
Time: 19:12:50
(UTC+00:00)

Courier 1B Rocket - Pass Details

Date: 05 October 2022
Orbit: 920 x 1202 km, 28.3° (Epoch: 01 December)

Event Time Altitude Azimuth Distance (km) Brightness Sun altitude
Rises 03:24:00 0° 269° (W) 3,638 8.4 -52.4°
Enters shadow 03:24:22 - 269° (W) 3,510 8.3 -52.4°
Reaches altitude 10° 03:26:52 10° 262° (W) 2,659 - -52.8°
Maximum altitude 03:32:39 37° 196° (SSW) 1,386 - -53.6°
Drops below altitude 10° 03:38:19 10° 130° (SE) 2,600 - -54.4°
Sets 03:41:05 0° 123° (ESE) 3,548 - -54.8°
